TimeAKST,TemperatureF,Dew PointF,Humidity,Sea Level PressureIn,VisibilityMPH,Wind Direction,Wind SpeedMPH,Gust SpeedMPH,PrecipitationIn,Events,Conditions,WindDirDegrees,DateUTC
12:53 AM,28.9,24.1,82,29.80,10.0,NNE,15.0,-,N/A,,Clear,20,2013-03-07 09:53:00
1:53 AM,28.9,24.1,82,29.77,10.0,NNE,13.8,-,N/A,,Clear,20,2013-03-07 10:53:00
3:53 AM,28.9,25.0,85,29.70,10.0,NNE,16.1,-,N/A,,Clear,20,2013-03-07 12:53:00
4:53 AM,28.9,25.0,85,29.67,10.0,NE,12.7,-,N/A,,Clear,40,2013-03-07 13:53:00
5:53 AM,30.0,26.1,85,29.63,10.0,NNE,12.7,-,N/A,,Mostly Cloudy,20,2013-03-07 14:53:00
6:53 AM,33.1,26.1,75,29.60,10.0,NNE,15.0,-,N/A,,Clear,30,2013-03-07 15:53:00
7:53 AM,34.0,26.1,73,29.60,10.0,NE,12.7,-,N/A,,Clear,40,2013-03-07 16:53:00
8:53 AM,36.0,27.0,70,29.59,10.0,NE,11.5,-,N/A,,Scattered Clouds,40,2013-03-07 17:53:00
9:53 AM,36.0,27.0,70,29.57,10.0,NE,9.2,-,N/A,,Overcast,50,2013-03-07 18:53:00
10:53 AM,39.0,27.0,62,29.55,10.0,NE,11.5,-,N/A,,Overcast,40,2013-03-07 19:53:00
11:53 AM,41.0,25.0,53,29.53,10.0,ENE,12.7,21.9,N/A,,Overcast,70,2013-03-07 20:53:00
12:53 PM,42.1,21.9,45,29.51,10.0,East,12.7,-,N/A,,Overcast,100,2013-03-07 21:53:00
1:53 PM,39.9,26.1,58,29.50,10.0,East,12.7,24.2,N/A,,Overcast,80,2013-03-07 22:53:00
2:53 PM,37.0,28.9,73,29.52,10.0,East,15.0,25.3,N/A,,Overcast,90,2013-03-07 23:53:00
3:53 PM,36.0,30.9,82,29.51,10.0,East,12.7,-,N/A,,Mostly Cloudy,80,2013-03-08 00:53:00
4:53 PM,36.0,30.9,82,29.49,10.0,ENE,12.7,-,N/A,,Overcast,60,2013-03-08 01:53:00
5:53 PM,37.0,30.0,76,29.48,10.0,East,15.0,29.9,N/A,,Overcast,80,2013-03-08 02:53:00
6:53 PM,36.0,30.0,79,29.49,10.0,ENE,8.1,-,N/A,,Mostly Cloudy,60,2013-03-08 03:53:00
7:53 PM,36.0,28.9,76,29.49,10.0,ENE,13.8,-,N/A,,Partly Cloudy,70,2013-03-08 04:53:00
8:53 PM,36.0,28.9,76,29.49,10.0,ENE,11.5,-,N/A,,Partly Cloudy,70,2013-03-08 05:53:00
9:53 PM,36.0,28.0,73,29.49,10.0,ENE,10.4,20.7,N/A,,Clear,70,2013-03-08 06:53:00
10:53 PM,35.1,28.0,76,29.50,10.0,East,6.9,-,N/A,,Clear,80,2013-03-08 07:53:00
11:53 PM,35.1,27.0,72,29.50,10.0,ENE,4.6,-,N/A,,Clear,60,2013-03-08 08:53:00